Simultaneous Nadir Overpasses (SNOs) Predictions

Prediction of SNOs between AQUA and NPP Satellite Orbit:

Table of predicted SNOs for the next 14.0 days since TLE Epoch: 12/4/2021
Index Date (AQUA) Time (AQUA) Lat,Lon (AQUA) SZA (AQUA ) Date (NPP) Time (NPP) Lat,Lon (NPP) SZA (NPP ) Distance(km) Time Diff (sec)
1 12/05/2021 13:16:09 -75.75, 39.44 61.23 12/05/2021 13:15:27 -75.76, 39.47 61.20 0.87 42
2 12/05/2021 14:05:12 76.85,-149.34 117.61 12/05/2021 14:05:47 76.85,-149.29 117.56 1.57 35
3 12/08/2021 05:32:33 -76.17, 156.60 61.32 12/08/2021 05:32:10 -76.18, 156.68 61.31 2.08 23
4 12/08/2021 06:21:45 76.82, -33.55 117.99 12/08/2021 06:22:40 76.82, -33.65 117.96 2.70 55
5 12/10/2021 21:04:44 59.27, 81.81 134.31 12/10/2021 21:03:31 59.50, 80.53 134.83 76.73 73
6 12/10/2021 21:49:04 -76.24, -87.30 61.08 12/10/2021 21:49:01 -76.24, -87.35 61.07 1.49 3
7 12/10/2021 22:37:53 77.94, 86.82 117.02 12/10/2021 22:39:07 77.89, 86.90 116.96 5.85 74
8 12/13/2021 13:16:27 75.33,-141.80 120.15 12/13/2021 13:15:27 75.32,-141.87 120.22 2.11 60
9 12/13/2021 14:05:26 -76.73, 30.21 61.35 12/13/2021 14:05:42 -76.73, 30.27 61.38 1.83 16
10 12/16/2021 05:32:44 76.02, -23.91 119.63 12/16/2021 05:32:03 76.02, -23.84 119.65 2.03 41



Historial Predications of SNOs between AQUA and NPP
